This is the latest recevied weather packets stored in our database for station/object KB1FPD. If no packets are shown the sender has not sent any weather packets the latest 10 day(s).
| Time | Temp. | Humidity | Pressure | Rain* | Wind** | Luminosity | Snow |
|---|---|---|---|---|---|---|---|
| 1777828908 | 12.78° C | 54% | 1015.3 hPa | 0 mm | - | - | - |
| 1777828610 | 12.22° C | 48% | 1015.5 hPa | 0 mm | - | - | - |
| 1777828308 | 12.22° C | 48% | 1015.6 hPa | 0 mm | - | - | - |
| 1777828007 | 11.67° C | 54% | 1015.4 hPa | 0 mm | - | - | - |
| 1777827712 | 11.67° C | 51% | 1015.6 hPa | 0 mm | - | - | - |
| 1777827410 | 11.11° C | 55% | 1015.6 hPa | 0 mm | - | - | - |
| 1777827107 | 11.11° C | 47% | 1015.7 hPa | 0 mm | - | - | - |
| 1777826811 | 11.67° C | 57% | 1015.7 hPa | 0 mm | - | - | - |
| 1777826510 | 11.11° C | 54% | 1015.7 hPa | 0 mm | - | - | - |
| 1777826208 | 11.11° C | 55% | 1015.9 hPa | 0 mm | - | - | - |
| 1777825915 | 10.56° C | 54% | 1015.9 hPa | 0 mm | - | - | - |
| 1777825609 | 10.56° C | 52% | 1015.7 hPa | 0 mm | - | - | - |
| 1777825315 | 10.56° C | 51% | 1016.1 hPa | 0 mm | - | - | - |
| 1777825014 | 10.56° C | 58% | 1016.3 hPa | 0 mm | - | - | - |
| 1777824709 | 9.44° C | 55% | 1016.4 hPa | 0 mm | - | - | - |
| 1777824405 | 9.44° C | 49% | 1016.4 hPa | 0 mm | - | - | - |
| 1777824108 | 9.44° C | 51% | 1016.5 hPa | 0 mm | - | - | - |
| 1777823808 | 10° C | 52% | 1016.5 hPa | 0 mm | - | - | - |
| 1777823513 | 9.44° C | 51% | 1016.4 hPa | 0 mm | - | - | - |
| 1777823205 | 10° C | 58% | 1016.5 hPa | 0 mm | - | - | - |
| 1777822908 | 9.44° C | 56% | 1016.5 hPa | 0 mm | - | - | - |
| 1777822603 | 9.44° C | 56% | 1016.6 hPa | 0 mm | - | - | - |
| 1777822305 | 9.44° C | 54% | 1016.5 hPa | 0 mm | - | - | - |
| 1777822002 | 8.89° C | 54% | 1016.5 hPa | 0 mm | - | - | - |
| 1777821701 | 8.89° C | 58% | 1016.6 hPa | 0 mm | - | - | - |
* Rain latest hour (hover to see other rain measurements)
** Current wind speed in m/s (hover to see current wind gust speed)